North Platte, NE

5:49 AM CDT on June 24, 2017 (GMT -0500)
North Platte Regional-Bird

Weather History for KLBF - July, 2012

Change the Weather History Date:

Monday, July 23, 2012

  Actual Average Record
Temperature  
Mean Temperature 84 °F 75 °F  
Max Temperature 104 °F 89 °F 104 °F (1940)
Min Temperature 63 °F 61 °F 49 °F (1948)
Degree Days  
Heating Degree Days 0 0  
Month to date heating degree days 0 0  
Since 1 June heating degree days 6 51  
Since 1 July heating degree days 0 0  
Cooling Degree Days 19 10  
Month to date cooling degree days 365 216  
Year to date cooling degree days 766 382  
Since 1 June cooling degree days 687 354  
Growing Degree Days 34 (Base 50)    
Moisture  
Dew Point 56 °F    
Average Humidity 49    
Maximum Humidity 78    
Minimum Humidity 20    
Precipitation  
Precipitation 0.00 in 0.11 in 1.15 in (1985)
Month to date precipitation 0.42 2.26  
Year to date precipitation 7.88 13.12  
Snow  
Snow 0.00 in 0.00 in 0.00 in (2002)
Month to date snowfall 0.0 0.0  
Since 1 June snowfall 0.0 0.0  
Since 1 July snowfall 0.0 0.0  
Snow Depth 0.00 in    
Sea Level Pressure  
Sea Level Pressure 29.89 in    
Wind  
Wind Speed 9 mph (South)    
Max Wind Speed 18 mph    
Max Gust Speed 24 mph    
Visibility 10 miles    
Events      
T = Trace of Precipitation, MM = Missing Value Source: NWS Daily Summary

Daily Weather History Graph

Daily Weather History Graph

Search for Another Location

Airport or City:

Trip Planner

Search our weather history database for the weather conditions in past years. The results will help you decide how hot, cold, wet, or windy it might be!

Date:

Astronomy

Jul. 23, 2012 Rise Set
Actual Time 6:30 AM CDT 9:07 PM CDT
Civil Twilight 5:58 AM CDT 9:39 PM CDT
Nautical Twilight 5:18 AM CDT 10:18 PM CDT
Astronomical Twilight 4:33 AM CDT 11:03 PM CDT
Moon 11:26 AM CDT (7/23) 11:19 PM CDT (7/23)
Length of Visible Light 15h 40m
Length of Day
14h 37m
Waxing Crescent, 22% of the Moon is Illuminated
Jul 23
Waxing Crescent
Jul 26
First Quarter
Aug 1
Full
Aug 9
Last Quarter
Aug 17
New

Hourly Weather History & Observations

Time (CDT) Temp. Heat Index Dew Point Humidity Pressure Visibility Wind Dir Wind Speed Gust Speed Precip Events Conditions
2:53 AM 81.0 °F 80.5 °F 54.0 °F 39% 29.91 in 10.0 mi SSW 8.1 mph - N/A   Clear
3:53 AM 78.1 °F - 54.0 °F 43% 29.92 in 10.0 mi Calm Calm - N/A   Clear
4:53 AM 75.9 °F - 54.0 °F 46% 29.95 in 10.0 mi WNW 5.8 mph - N/A   Clear
5:53 AM 69.1 °F - 55.9 °F 63% 29.98 in 10.0 mi WSW 3.5 mph - N/A   Clear
6:53 AM 64.0 °F - 57.0 °F 78% 29.97 in 10.0 mi SE 4.6 mph - N/A   Clear
7:53 AM 72.0 °F - 57.0 °F 59% 29.96 in 10.0 mi Calm Calm - N/A   Clear
8:53 AM 79.0 °F - 57.0 °F 47% 29.95 in 10.0 mi Calm Calm - N/A   Clear
9:53 AM 88.0 °F 87.1 °F 59.0 °F 37% 29.92 in 10.0 mi Variable 5.8 mph - N/A   Clear
10:53 AM 95.0 °F 94.0 °F 57.9 °F 29% 29.91 in 10.0 mi SSW 10.4 mph - N/A   Clear
11:53 AM 99.0 °F 98.1 °F 57.9 °F 25% 29.90 in 10.0 mi South 9.2 mph - N/A   Clear
12:53 PM 100.9 °F 100.0 °F 57.0 °F 23% 29.89 in 10.0 mi SW 12.7 mph - N/A   Clear
1:53 PM 102.0 °F 101.1 °F 55.9 °F 22% 29.88 in 10.0 mi South 10.4 mph - N/A   Clear
2:53 PM 102.9 °F 102.4 °F 57.0 °F 22% 29.86 in 1.2 mi South 16.1 mph 21.9 mph N/A   Haze
3:07 PM 104.0 °F 102.9 °F 55.4 °F 20% 29.97 in 10.0 mi South 12.7 mph 23.0 mph N/A   Clear
3:53 PM 104.0 °F 102.9 °F 55.9 °F 20% 29.85 in 10.0 mi South 11.5 mph - N/A   Clear
4:53 PM 104.0 °F 102.9 °F 55.9 °F 20% 29.84 in 10.0 mi South 16.1 mph 24.2 mph N/A   Clear
5:53 PM 100.9 °F 99.6 °F 55.0 °F 22% 29.83 in 10.0 mi South 16.1 mph 21.9 mph N/A   Clear
6:53 PM 99.0 °F 98.1 °F 57.0 °F 25% 29.83 in 10.0 mi South 9.2 mph - N/A   Clear
7:53 PM 96.1 °F 95.2 °F 57.9 °F 28% 29.81 in 10.0 mi South 11.5 mph - N/A   Clear
8:53 PM 89.1 °F 87.1 °F 55.0 °F 31% 29.82 in 10.0 mi SSE 6.9 mph - N/A   Clear
9:53 PM 87.1 °F 85.3 °F 55.0 °F 33% 29.83 in 10.0 mi SSE 9.2 mph - N/A   Clear
10:53 PM 86.0 °F 84.0 °F 53.1 °F 32% 29.84 in 10.0 mi SSE 10.4 mph - N/A   Clear
11:53 PM 84.0 °F 82.5 °F 53.1 °F 34% 29.84 in 10.0 mi SSE 9.2 mph - N/A   Clear